Weather Roundup
Issued by NWS Springfield, MO

Home | Current Version | Previous Version | Text Only | Print | Product List | Glossary On
Versions: 1 2 3 4 5 6 7 8 9 10 11 12 13 14 15 16 17 18 19 20 21 22 23 24 25 26 27 28 29 30 31 32 33 34 35 36 37 38 39 40 41 42 43 44 45 46 47 48 49 50
000
NZUS99 KSGF 312207
HRRSGF

HOURLY WEATHER
NATIONAL WEATHER SERVICE SPRINGFIELD MO
500 PM CDT MON AUG 31 2015

......SGF CWA......

CITY           SKY/WX    TMP DP  RH WIND       PRES   REMARKS
SPRINGFIELD    SUNNY     88  67  49 S12       30.01F HX  91
JOPLIN         SUNNY     89  68  49 SW12      29.99S HX  93
WEST PLAINS    MOSUNNY   87  66  49 S7        30.07S
ROLLA          SUNNY     89  68  49 S13       30.01S HX  93
OSAGE BEACH    SUNNY     91  66  43 S10       30.00S HX  94
BRANSON        PTSUNNY   81  72  74 S7        30.05F

......SURROUNDING SGF CWA......

CITY           SKY/WX    TMP DP  RH WIND       PRES   REMARKS
CHANUTE        SUNNY     88  70  55 S16       29.95F HX  93
PARSONS        SUNNY     88  70  55 S12G18    29.97S HX  93
COFFEYVILLE    SUNNY     88  71  57 S15       29.95F HX  94
EMPORIA        SUNNY     89  68  49 S16       29.93S HX  93
GROVE OK       SUNNY     91  68  46 S12       30.00S HX  95
ROGERS AR      MOSUNNY   88  67  49 SW8       30.03F HX  91
SILOAM SPRINGS MOSUNNY   88  66  48 S8        30.01S HX  90
NEAR YELLVILLE PTSUNNY   90  63  40 SE3       30.01S HX  90

......KANSAS AND MISSOURI......

CITY           SKY/WX    TMP DP  RH WIND       PRES   REMARKS
KANSAS CTY INT SUNNY     90  68  48 SW12      29.94F HX  94
DOWNTOWN KC    MOSUNNY   90  70  51 S13       29.93F HX  95
COLUMBIA       SUNNY     89  70  53 SW9       29.98F HX  94
SEDALIA        SUNNY     92  65  40 S8        29.98F HX  94
ST JOSEPH      SUNNY     88  70  55 S8        29.92F HX  93
ST LOUIS       PTSUNNY   85  68  56 SE9       30.01S THUNDER
SPIRIT OF STL  CLOUDY    88  73  61 S3        29.98F HX  95
KIRKSVILLE     MOSUNNY   87  70  56 S8        29.97F HX  92
WICHITA        SUNNY     94  60  32 S10       29.90F HX  94
TOPEKA         SUNNY     90  68  48 S12       29.92S HX  94
OLATHE         SUNNY     86  71  60 S9        29.95F HX  91

......TENNESSEE......

CITY           SKY/WX    TMP DP  RH WIND       PRES   REMARKS
MEMPHIS        MOSUNNY   89  69  51 SE6       30.04S HX  93
NASHVILLE      MOSUNNY   86  61  42 CALM      30.08S

......ARKANSAS.......

CITY           SKY/WX    TMP DP  RH WIND       PRES   REMARKS
FAYETTEVILLE   SUNNY     85  69  58 SE10      30.03S
FT SMITH       SUNNY     91  68  46 NE6       29.97F HX  95
LITTLE ROCK    PTSUNNY   93  65  39 SE8       29.99F HX  95

......OKLAHOMA.......

CITY           SKY/WX    TMP DP  RH WIND       PRES   REMARKS
TULSA          MOSUNNY   92  69  47 S12       29.94S HX  97
PONCA CITY     SUNNY     93  64  38 S15G23    29.90S HX  94
MCALESTER      SUNNY     92  66  42 S7        29.98F HX  94
OKLAHOMA CITY  MOSUNNY   93  60  33 S16G24    29.95F HX  93

......IOWA............

CITY           SKY/WX    TMP DP  RH WIND       PRES   REMARKS
DES MOINES     MOSUNNY   87  70  56 S9        29.92F HX  92
QUAD CITIES    MOSUNNY   88  71  57 S9        29.97F HX  94

......ILLINOIS........

CITY           SKY/WX    TMP DP  RH WIND       PRES   REMARKS
QUINCY         MOSUNNY   90  69  50 S7        29.98S HX  94
CHICAGO        MOSUNNY   85  66  53 SW7       30.01S




USA.gov is the U.S. government's official web portal to all federal, state and local government web resources and services.